Tracking 29040 objects as of 17-Jun-2024
HD Live streaming from Space Station
objects crossing your sky now

STARLINK-4016

Track STARLINK-4016 now!
10-day predictions
STARLINK-4016 is classified as:


NORAD ID: 52603
Int'l Code: 2022-052F
Perigee: 545.9 km
Apogee: 547.8 km
Inclination: 53.2 °
Period: 95.4 minutes
Semi major axis: 6917 km
RCS: Unknown
Launch date: May 14, 2022
Source: United States (US)
Launch site: AIR FORCE EASTERN TEST RANGE (AFETR)
Your satellite tracking list
Your tracking list is empty




NASA's NSSDC Master Catalog

Two Line Element Set (TLE):
1 52603U 22052F   24168.58024481  .00000619  00000-0  56954-4 0  9999
2 52603  53.2165 232.2894 0001394 103.9611 256.1536 15.08839855116387
Source of the keplerian elements: AFSPC